This demonstration page uses our WeatherBlox Daily Observations layout. Learn more.

Left ArrowRight Arrow

Hourly Observations for November 17, 2016

Temp ( °F °C ) Dew Point ( °F °C ) Humidity (%) Winds ( mph kmh ) Pressure ( in mb ) Visibility ( mi km ) Precip ( " mm )
12:53 am 00:53 Clear 42 5.6 39 3.9 89 89 Calm 30.05 1018 10 16 0.00 0.00
1:53 am 01:53 Clear 42 5.6 38 3.3 85 85 Calm 30.05 1018 10 16 0.00 0.00
2:53 am 02:53 Clear 41 5 37 2.8 86 86 Calm 30.07 1018 10 16 0.00 0.00
3:53 am 03:53 Clear 41 5 37 2.8 86 86 Calm 30.08 1019 10 16 0.00 0.00
4:53 am 04:53 Clear 40 4.4 37 2.8 89 89 Calm 30.09 1019 10 16 0.00 0.00
5:53 am 05:53 Clear 39 3.9 35 1.7 86 86 Calm 30.10 1019 10 16 0.00 0.00
6:53 am 06:53 Clear 38 3.3 35 1.7 89 89 Calm 30.12 1020 10 16 0.00 0.00
7:53 am 07:53 Sunny 40 4.4 37 2.8 89 89 Calm 30.14 1021 10 16 0.00 0.00
8:53 am 08:53 Sunny 48 8.9 41 5 77 77 Calm 30.15 1021 10 16 0.00 0.00
9:53 am 09:53 Sunny 58 14.4 41 5 53 53 Calm 30.15 1021 10 16 0.00 0.00
10:53 am 10:53 Sunny 67 19.4 42 5.6 41 41 Calm 30.15 1021 10 16 0.00 0.00
11:53 am 11:53 Sunny 72 22.2 40 4.4 31 31 SSW 3 6 30.13 1020 10 16 0.00 0.00
12:53 pm 12:53 Sunny 74 23.3 40 4.4 29 29 S 5 7 30.10 1019 10 16 0.00 0.00
1:53 pm 13:53 Sunny 76 24.4 40 4.4 27 27 W 6 9 30.08 1019 10 16 0.00 0.00
2:53 pm 14:53 Sunny 77 25 40 4.4 26 26 VRB 3 6 30.07 1018 10 16 0.00 0.00
3:53 pm 15:53 Sunny 78 25.6 40 4.4 26 26 NNW 5 7 30.07 1018 10 16 0.00 0.00
4:53 pm 16:53 Sunny 77 25 40 4.4 26 26 VRB 3 6 30.07 1018 10 16 0.00 0.00
5:53 pm 17:53 Clear 66 18.9 43 6.1 43 43 Calm 30.09 1019 10 16 0.00 0.00
6:53 pm 18:53 Clear 60 15.6 45 7.2 58 58 Calm 30.11 1020 10 16 0.00 0.00
7:53 pm 19:53 Clear 55 12.8 44 6.7 67 67 Calm 30.13 1020 10 16 0.00 0.00
8:53 pm 20:53 Clear 53 11.7 44 6.7 72 72 Calm 30.14 1021 10 16 0.00 0.00
9:53 pm 21:53 Clear 50 10 44 6.7 80 80 Calm 30.15 1021 10 16 0.00 0.00
10:53 pm 22:53 Clear 49 9.4 43 6.1 80 80 Calm 30.14 1021 10 16 0.00 0.00
11:53 pm 23:53 Clear 46 7.8 42 5.6 86 86 WNW 3 6 30.15 1021 10 16 0.00 0.00

Powered by AerisWeather